Flag for Germany Weather past 2 weeks in Öhringen, Baden-Württemberg, Germany

Now
55 °F

Fog.


Feels Like: 55 °F
Forecast: 53 / 70 °F
Wind: No wind

Location: Oehringen

Current Time: Sep 2, 2015 at 8:48:34 AM

Latest Report: Sep 2, 2015 at 8:00 AM


Visibility: 4 mi

Pressure: 30.07 "Hg

Humidity: 90%

Dew point: 52 °F

Location of ÖhringenLocation

Historic Weather in Öhringen — Graph

°F

Öhringen temperature yesterday

Maximum temperature yesterday: 79 °F (at 12:00 PM)
Minimum temperature yesterday: 61 °F (at 11:00 PM)
Average temperature yesterday: 69 °F

Past Weeks' High & Low Weather Summary

 TemperatureHumidityPressure
High93 °F (Aug 31, 6:00 PM)99% (Aug 21, 8:00 AM)30.29 "Hg (Aug 21, 8:00 AM)
Low51 °F (Aug 26, 7:00 AM)27% (Aug 22, 2:00 PM)29.68 "Hg (Aug 24, 3:00 PM)
Average69 °F67%30.01 "Hg
* Reported Aug 18 8:00 AM — Sep 2 8:00 AM, Öhringen, Weather by CustomWeather, © 2015

Note: Actual official high and low records may vary slightly from our data, if they occured in-between our weather recording intervals... More about our weather records

Advertising

Öhringen weather history for previous 24 hours

 ConditionsComfort  
Time TempWeatherWind HumidityBarometerVisibility
8:00 AM
Wed, Sep 2
55 °FFog.No wind90%30.07 "Hg4 mi
7:00 AM54 °FFog.No wind96%30.07 "Hg4 mi
6:00 AM54 °FFog.1 mph96%30.07 "Hg4 mi
5:00 AM54 °FFog.1 mph96%30.08 "Hg3 mi
4:00 AM55 °FFog.1 mph96%30.08 "Hg4 mi
3:00 AM55 °FFog.1 mph96%30.07 "Hg4 mi
2:00 AM57 °FOvercast.2 mph92%30.07 "Hg7 mi
1:00 AM57 °FPassing clouds.2 mph92%30.06 "Hg7 mi
11:00 PM
Tue, Sep 1
61 °FOvercast.3 mph89%30.03 "Hg13 mi
10:00 PM61 °FOvercast.2 mph92%30.01 "Hg12 mi
9:00 PM62 °FOvercast.3 mph92%29.99 "Hg13 mi
8:00 PM63 °FOvercast.3 mph93%29.96 "Hg17 mi
7:00 PM64 °FLight rain. Overcast.3 mph90%29.94 "Hg22 mi
6:00 PM64 °FDrizzle. Overcast.5 mph95%29.91 "Hg18 mi
5:00 PM64 °FRain. Overcast.8 mph92%29.88 "Hg2 mi
4:00 PM77 °FOvercast.7 mph55%29.81 "Hg28 mi
3:00 PM73 °FOvercast.3 mph64%29.83 "Hg22 mi
2:00 PM70 °FLight rain. Overcast.6 mph74%29.84 "Hg8 mi
1:00 PM75 °FOvercast.10 mph51%29.83 "Hg22 mi
12:00 PM79 °FOvercast.8 mph46%29.80 "Hg22 mi
11:00 AM76 °FOvercast.2 mph56%29.78 "Hg17 mi
10:00 AM76 °FOvercast.2 mph58%29.78 "Hg19 mi
9:00 AM74 °FScattered clouds.1 mph60%29.78 "Hg13 mi
8:00 AM67 °FSunny.1 mph72%29.81 "Hg12 mi
Weather by CustomWeather, © 2015

See weather overviewHow to use our weather pages